Location: ?
(35.3544°N, 139.4507°E)
Time: 06:02:20
(UTC+00:00)

Cosmos 2219 Rocket - Pass Details

Date: 03 August 2024
Orbit: 826 x 846 km, 71.0° (Epoch: 09 September)

Event Time Altitude Azimuth Distance (km) Brightness Sun altitude
Exits shadow 18:59:25 - 277° (W) 2,744 4.4 -10.7°
Reaches altitude 10° 19:01:31 10° 296° (WNW) 2,464 4.3 -10.3°
Maximum altitude 19:02:47 11° 309° (NW) 2,416 4.4 -10.1°
Drops below altitude 10° 19:04:03 10° 323° (NW) 2,469 4.6 -9.9°
Sets 19:08:59 0° 360° (N) 3,412 5.8 -9.0°
